| time (UTC) | temp C | wind direction | speed KPH | gust KPH | rain 1hr cm | rain 24hr cm | rain mn cm | humidity % | barometer mb |
| 20260503050213 | 6 | 220 | 0.0 | 0.0 | 0.00 | 0.00 | 0.00 | 58 | 1009.3 |
| 20260503045154 | 6 | 219 | 0.0 | 0.0 | 0.00 | 0.00 | 0.00 | 58 | 1009.3 |
| 20260503044136 | 6 | 219 | 0.0 | 0.0 | 0.00 | 0.00 | 0.00 | 59 | 1009.4 |
| 20260503043159 | 6 | 219 | 0.0 | 0.0 | 0.00 | 0.00 | 0.00 | 60 | 1009.5 |
| 20260503042159 | 6 | 219 | 0.0 | 0.0 | 0.00 | 0.00 | 0.00 | 60 | 1009.6 |
| 20260503041153 | 6 | 219 | 0.0 | 0.0 | 0.00 | 0.00 | 0.00 | 59 | 1009.7 |
| 20260503040133 | 6 | 219 | 0.0 | 0.0 | 0.00 | 0.00 | 0.00 | 59 | 1009.8 |
| 20260503033959 | 6 | 219 | 0.0 | 0.0 | 0.00 | 0.00 | 0.00 | 59 | 1010.0 |
| 20260503033011 | 6 | 223 | 0.0 | 0.0 | 0.00 | 0.00 | 0.00 | 59 | 1010.0 |
| 20260503032003 | 6 | 223 | 0.0 | 1.6 | 0.00 | 0.00 | 0.00 | 58 | 1010.2 |
| 20260503030929 | 7 | 223 | 0.0 | 1.6 | 0.00 | 0.00 | 0.00 | 57 | 1010.2 |
| 20260503025940 | 7 | 223 | 0.0 | 4.8 | 0.00 | 0.00 | 0.00 | 56 | 1010.4 |
| 20260503024918 | 7 | 223 | 0.0 | 4.8 | 0.00 | 0.00 | 0.00 | 55 | 1010.4 |
| 20260503023912 | 7 | 223 | 0.0 | 4.8 | 0.00 | 0.00 | 0.00 | 54 | 1010.3 |
| 20260503022854 | 8 | 223 | 0.0 | 4.8 | 0.00 | 0.00 | 0.00 | 55 | 1010.4 |
| 20260503021903 | 8 | 223 | 0.0 | 3.2 | 0.00 | 0.00 | 0.00 | 53 | 1010.4 |
| 20260503020921 | 8 | 223 | 0.0 | 1.6 | 0.00 | 0.00 | 0.00 | 54 | 1010.4 |
| 20260503015916 | 8 | 223 | 0.0 | 1.6 | 0.00 | 0.00 | 0.00 | 54 | 1010.4 |
| 20260503014902 | 8 | 223 | 0.0 | 1.6 | 0.00 | 0.00 | 0.00 | 54 | 1010.3 |
| 20260503013852 | 9 | 223 | 0.0 | 1.6 | 0.00 | 0.00 | 0.00 | 52 | 1010.4 |
| 20260503012915 | 10 | 223 | 0.0 | 1.6 | 0.00 | 0.00 | 0.00 | 53 | 1010.3 |
| 20260503011904 | 10 | 223 | 0.0 | 4.8 | 0.00 | 0.00 | 0.00 | 51 | 1010.3 |
| 20260503010924 | 10 | 223 | 0.0 | 1.6 | 0.00 | 0.00 | 0.00 | 49 | 1010.2 |
| 20260503005940 | 11 | 223 | 0.0 | 4.8 | 0.00 | 0.00 | 0.00 | 46 | 1010.3 |
| 20260503004945 | 12 | 224 | 0.0 | 1.6 | 0.00 | 0.00 | 0.00 | 43 | 1010.3 |
| 20260503003935 | 13 | 224 | 0.0 | 1.6 | 0.00 | 0.00 | 0.00 | 37 | 1010.4 |
| 20260503002956 | 13 | 224 | 0.0 | 3.2 | 0.00 | 0.00 | 0.00 | 34 | 1010.5 |
| 20260503002003 | 14 | 224 | 0.0 | 6.4 | 0.00 | 0.00 | 0.00 | 30 | 1010.5 |
| 20260503000938 | 15 | 223 | 1.6 | 8.0 | 0.00 | 0.00 | 0.00 | 26 | 1010.5 |
| 20260502235951 | 15 | 317 | 1.6 | 8.0 | 0.00 | 0.00 | 0.00 | 26 | 1010.6 |
| 20260502235000 | 16 | 258 | 1.6 | 9.7 | 0.00 | 0.00 | 0.00 | 24 | 1010.6 |
| 20260502233937 | 16 | 341 | 3.2 | 16.1 | 0.00 | 0.00 | 0.00 | 21 | 1010.7 |
| 20260502232946 | 16 | 5 | 6.4 | 16.1 | 0.00 | 0.00 | 0.00 | 19 | 1010.9 |
| 20260502231923 | 16 | 284 | 4.8 | 16.1 | 0.00 | 0.00 | 0.00 | 19 | 1010.9 |
| 20260502230921 | 16 | 349 | 3.2 | 16.1 | 0.00 | 0.00 | 0.00 | 19 | 1011.0 |
| 20260502225905 | 16 | 0 | 4.8 | 16.1 | 0.00 | 0.00 | 0.00 | 18 | 1011.2 |
| 20260502224850 | 16 | 251 | 6.4 | 16.1 | 0.00 | 0.00 | 0.00 | 19 | 1011.3 |
| 20260502223910 | 16 | 321 | 6.4 | 17.7 | 0.00 | 0.00 | 0.00 | 18 | 1011.4 |
| 20260502222847 | 17 | 311 | 4.8 | 17.7 | 0.00 | 0.00 | 0.00 | 18 | 1011.3 |
| 20260502221824 | 17 | 333 | 6.4 | 16.1 | 0.00 | 0.00 | 0.00 | 16 | 1011.4 |
| 20260502220835 | 17 | 283 | 4.8 | 22.5 | 0.00 | 0.00 | 0.00 | 18 | 1011.5 |
| 20260502215806 | 16 | 34 | 6.4 | 22.5 | 0.00 | 0.00 | 0.00 | 18 | 1011.6 |
| 20260502214800 | 16 | 284 | 6.4 | 17.7 | 0.00 | 0.00 | 0.00 | 19 | 1011.8 |
| 20260502213815 | 16 | 273 | 4.8 | 14.5 | 0.00 | 0.00 | 0.00 | 18 | 1011.8 |
| 20260502212831 | 16 | 271 | 6.4 | 14.5 | 0.00 | 0.00 | 0.00 | 20 | 1011.9 |
| 20260502210710 | 16 | 334 | 8.0 | 20.9 | 0.00 | 0.00 | 0.00 | 19 | 1012.1 |
| 20260502205706 | 16 | 271 | 6.4 | 19.3 | 0.00 | 0.00 | 0.00 | 19 | 1012.1 |
| 20260502202446 | 15 | 251 | 4.8 | 16.1 | 0.00 | 0.00 | 0.00 | 21 | 1012.5 |
| 20260502201433 | 15 | 229 | 8.0 | 20.9 | 0.00 | 0.00 | 0.00 | 20 | 1012.7 |
| 20260502200411 | 15 | 0 | 4.8 | 19.3 | 0.00 | 0.00 | 0.00 | 22 | 1013.0 |
| 20260502195346 | 15 | 321 | 4.8 | 11.3 | 0.00 | 0.00 | 0.00 | 21 | 1013.1 |
| 20260502194333 | 15 | 178 | 4.8 | 16.1 | 0.00 | 0.00 | 0.00 | 19 | 1013.5 |
| 20260502193340 | 15 | 37 | 4.8 | 27.4 | 0.00 | 0.00 | 0.00 | 20 | 1013.6 |
| 20260502192344 | 15 | 273 | 6.4 | 27.4 | 0.00 | 0.00 | 0.00 | 21 | 1013.7 |
| 20260502190158 | 15 | 332 | 6.4 | 24.1 | 0.00 | 0.00 | 0.00 | 24 | 1014.0 |
| 20260502185208 | 15 | 331 | 6.4 | 20.9 | 0.00 | 0.00 | 0.00 | 22 | 1014.0 |
| 20260502184156 | 14 | 16 | 6.4 | 20.9 | 0.00 | 0.00 | 0.00 | 23 | 1014.3 |
| 20260502183150 | 15 | 315 | 4.8 | 16.1 | 0.00 | 0.00 | 0.00 | 23 | 1014.2 |
| 20260502182211 | 14 | 234 | 4.8 | 19.3 | 0.00 | 0.00 | 0.00 | 23 | 1014.3 |
| 20260502181144 | 14 | 344 | 4.8 | 19.3 | 0.00 | 0.00 | 0.00 | 23 | 1014.5 |
| 20260502180117 | 15 | 321 | 6.4 | 20.9 | 0.00 | 0.00 | 0.00 | 21 | 1014.5 |
| 20260502162925 | 13 | 290 | 4.8 | 19.3 | 0.00 | 0.00 | 0.00 | 22 | 1015.5 |
| 20260502161939 | 13 | 320 | 8.0 | 19.3 | 0.00 | 0.00 | 0.00 | 21 | 1015.6 |
| 20260502160921 | 13 | 296 | 4.8 | 14.5 | 0.00 | 0.00 | 0.00 | 27 | 1015.9 |
| 20260502151457 | 11 | 5 | 4.8 | 14.5 | 0.00 | 0.00 | 0.00 | 33 | 1016.4 |
| 20260502140124 | 8 | 339 | 3.2 | 11.3 | 0.00 | 0.00 | 0.00 | 46 | 1016.8 |
| 20260502122754 | 1 | 109 | 0.0 | 0.0 | 0.00 | 0.00 | 0.00 | 47 | 1017.1 |
| 20260502121801 | 0 | 109 | 0.0 | 0.0 | 0.00 | 0.00 | 0.00 | 47 | 1017.1 |
| 20260502120741 | 0 | 109 | 0.0 | 0.0 | 0.00 | 0.00 | 0.00 | 48 | 1017.0 |
| 20260502115741 | 0 | 109 | 0.0 | 0.0 | 0.00 | 0.00 | 0.00 | 48 | 1017.0 |
| 20260502114731 | 0 | 109 | 0.0 | 1.6 | 0.00 | 0.00 | 0.00 | 48 | 1016.9 |
| 20260502113705 | 0 | 109 | 0.0 | 0.0 | 0.00 | 0.00 | 0.00 | 48 | 1016.8 |
| 20260502110508 | -1 | 109 | 0.0 | 6.4 | 0.00 | 0.00 | 0.00 | 49 | 1016.6 |
| 20260502105451 | -1 | 109 | 1.6 | 6.4 | 0.00 | 0.00 | 0.00 | 49 | 1016.6 |
| 20260502103322 | -1 | 104 | 0.0 | 1.6 | 0.00 | 0.00 | 0.00 | 50 | 1016.6 |
| 20260502102330 | -1 | 104 | 0.0 | 0.0 | 0.00 | 0.00 | 0.00 | 50 | 1016.6 |
| 20260502101345 | -1 | 104 | 0.0 | 1.6 | 0.00 | 0.00 | 0.00 | 51 | 1016.5 |
| 20260502100343 | -1 | 104 | 0.0 | 1.6 | 0.00 | 0.00 | 0.00 | 51 | 1016.5 |
| 20260502091024 | -1 | 104 | 0.0 | 0.0 | 0.00 | 0.00 | 0.00 | 55 | 1016.3 |
| 20260502071500 | 0 | 104 | 0.0 | 1.6 | 0.00 | 0.00 | 0.00 | 60 | 1016.5 |
| 20260502070507 | 0 | 104 | 0.0 | 0.0 | 0.00 | 0.00 | 0.00 | 60 | 1016.5 |
| 20260502063235 | 0 | 104 | 0.0 | 0.0 | 0.00 | 0.00 | 0.00 | 60 | 1016.6 |
| 20260502062254 | 0 | 104 | 0.0 | 1.6 | 0.00 | 0.00 | 0.00 | 61 | 1016.5 |
| 20260502060129 | 0 | 104 | 0.0 | 0.0 | 0.00 | 0.00 | 0.00 | 62 | 1016.6 |
| 20260502053953 | 1 | 104 | 0.0 | 3.2 | 0.00 | 0.00 | 0.00 | 62 | 1016.4 |
| 20260502053003 | 1 | 104 | 0.0 | 1.6 | 0.00 | 0.00 | 0.00 | 62 | 1016.4 |
| 20260502052004 | 1 | 104 | 0.0 | 3.2 | 0.00 | 0.00 | 0.00 | 61 | 1016.5 |
| 20260502051005 | 1 | 104 | 0.0 | 3.2 | 0.00 | 0.00 | 0.00 | 61 | 1016.5 |